Voltar ao catálogo

CZ-6A R/B

AtivoSSO
NORAD 52152·ROCKET BODY·🇨🇳 China

Lançado Mar 29, 2022 de Taiyuan Satellite Launch Center

Loading…

Próximas Passagens (próximas 24 horas)

TLE

AtualizadoSource: Space-Track

Época: Sep 14, 2026, 02:12 UTC

1 52152U 22031C   26257.09223438  .00001105  00000-0  75588-4 0  9990
2 52152  97.7925 104.2561 0015813 267.0934  92.8484 15.08184614244704

Acompanhe CZ-6A R/B em tempo real com AllMySat

Download on the App Store